GFSFLT2_sfc_dewp_093.txt.gz
Dewpoint
69 69 69 69 69 70 69 69 71 71 70 70 70 70 69 70 69 69 68 70 70 69 69 68 68 67 67 66 65 65 62 62
69 69 69 69 70 69 69 69 69 70 70 68 68 68 68 68 68 69 68 69 69 69 68 68 67 66 66 65 64 64 63 61
70 69 69 68 68 69 69 69 69 69 69 68 67 68 68 68 67 67 67 67 66 67 67 66 66 65 64 64 64 60 61 61
69 70 69 68 65 69 68 68 68 69 68 68 69 68 68 64 66 66 66 66 67 67 66 65 65 64 65 63 60 62 60 62
68 69 70 69 66 66 66 67 66 67 68 67 66 66 68 69 66 65 66 66 67 66 65 66 65 65 64 62 61 61 59 60
69 69 68 70 67 66 65 64 67 67 68 70 68 67 69 67 64 64 64 65 66 65 65 65 64 63 64 61 61 60 57 59
66 68 68 68 70 68 68 67 65 67 68 68 67 66 67 65 64 62 66 66 64 64 64 64 64 63 63 61 60 59 58 57
66 67 68 67 68 69 68 68 68 67 66 68 68 67 66 64 63 63 63 64 64 64 64 63 63 62 62 60 59 57 54 53
63 68 68 68 68 68 68 66 67 66 66 68 67 66 66 64 64 64 65 64 65 64 63 63 63 62 59 58 55 54 53 52
53 62 68 68 67 67 67 66 67 67 67 67 67 66 65 64 64 65 65 64 64 63 62 62 61 60 57 56 53 53 53 53
51 62 67 67 66 67 67 67 67 67 66 66 66 66 64 64 65 64 64 63 63 63 62 61 60 59 56 55 54 50 52 50
49 59 67 66 66 66 66 65 66 66 66 66 65 65 64 64 64 63 64 62 62 62 61 61 60 57 52 53 53 51 51 51
50 57 66 66 64 64 64 64 63 64 64 64 64 64 63 63 62 63 63 61 61 61 61 60 59 58 55 56 58 58 55 50
51 55 61 64 63 63 63 63 62 63 64 63 64 63 63 62 62 62 61 60 60 60 60 59 59 58 54 53 53 55 55 52
49 53 59 64 64 63 62 62 62 62 62 63 63 63 63 63 62 62 60 60 60 60 60 59 58 58 57 52 51 49 53 53
51 53 59 62 63 60 61 60 59 60 61 62 62 62 62 62 62 61 60 60 60 60 60 59 58 56 57 54 54 50 50 51
53 54 57 61 62 60 61 60 59 59 61 62 62 62 61 62 61 61 60 60 60 60 60 60 59 57 55 55 55 52 54 50
55 56 57 59 60 60 60 60 58 55 60 61 61 61 61 61 61 60 60 60 60 60 60 59 59 59 57 56 54 52 50 50
57 56 56 58 60 60 60 59 58 57 58 60 59 59 59 60 60 60 60 60 60 60 60 60 60 59 59 56 56 55 53 50
56 55 55 57 59 59 58 57 57 57 60 60 59 57 58 59 60 60 60 60 60 60 60 60 60 60 58 58 57 57 55 52

GFSFLT2_sfc_dewp_096.txt.gz
Dewpoint
69 69 70 70 70 70 69 70 70 71 71 71 71 70 69 70 70 69 69 69 69 70 69 69 69 68 67 67 65 65 64 65
70 70 69 69 70 69 68 69 70 70 71 70 70 69 69 69 69 68 68 68 68 69 68 68 67 67 67 65 65 65 65 62
71 70 69 69 69 69 69 69 69 70 70 69 68 70 69 69 68 67 67 67 67 67 67 67 65 65 66 65 65 62 64 63
70 70 69 70 67 69 69 69 69 70 70 70 70 69 68 66 67 66 66 66 66 67 67 66 65 65 64 63 64 64 61 62
70 70 70 70 67 69 68 68 68 69 69 69 70 68 68 68 66 66 66 66 66 66 66 66 65 65 64 62 63 61 62 61
68 69 70 70 69 68 67 67 67 68 68 69 68 67 68 67 65 65 65 65 65 65 65 65 64 65 63 63 61 60 61 61
68 68 69 69 70 68 68 67 67 68 68 69 68 67 67 66 65 64 63 64 64 64 63 63 64 63 63 62 61 61 60 60
69 68 69 69 68 69 68 69 68 68 68 68 68 68 67 66 65 63 63 64 65 64 63 62 63 63 63 62 60 61 60 59
68 68 68 68 68 69 68 68 68 68 67 68 67 67 67 65 64 64 64 64 64 63 63 63 63 63 62 60 61 60 57 57
65 68 68 68 68 68 66 68 67 67 67 68 67 67 66 65 64 64 64 64 64 63 63 62 62 61 60 61 60 54 54 55
53 67 68 67 68 67 66 67 67 66 66 66 67 67 65 65 64 64 64 64 63 63 62 62 61 61 60 61 56 54 54 53
52 67 68 67 67 66 66 65 65 66 66 66 65 66 65 65 64 64 64 63 63 62 61 61 61 60 61 59 53 54 53 55
51 62 68 67 66 65 65 64 64 65 66 66 65 65 64 64 63 63 63 62 62 62 61 60 60 61 59 56 57 54 52 53
51 58 67 66 65 65 64 63 64 64 64 64 64 64 64 63 63 62 62 62 61 61 60 59 60 60 57 52 52 53 55 52
50 54 66 66 65 64 63 63 64 64 63 63 63 64 63 63 63 62 62 61 61 61 60 59 58 59 59 51 51 49 52 53
49 52 56 66 64 63 63 62 61 61 61 62 62 63 63 63 62 62 62 61 61 60 61 59 59 57 58 53 52 52 49 50
53 53 54 64 64 63 63 61 61 61 61 61 61 62 62 62 62 62 61 61 61 60 60 59 59 58 56 54 52 54 52 50
54 54 56 63 63 63 63 61 60 59 60 61 61 61 61 61 62 61 61 60 60 60 60 60 59 58 56 54 51 52 51 51
56 54 55 62 62 62 63 61 61 60 60 60 61 60 60 61 61 61 60 60 60 60 60 60 59 58 57 55 54 53 54 53
56 55 55 60 60 61 61 61 60 59 59 61 60 59 59 61 60 60 60 60 60 60 60 59 59 59 58 57 57 56 55 54

GFSFLT2_sfc_dewp_099.txt.gz
Dewpoint
68 69 70 70 70 70 70 70 70 69 70 71 71 70 70 70 70 70 70 70 69 70 70 69 69 68 67 66 65 66 65 66
67 68 68 68 69 68 69 69 68 69 70 70 70 69 69 69 69 69 68 69 70 69 68 68 67 66 65 65 64 65 65 64
68 68 68 68 68 68 68 69 68 69 70 69 68 69 68 68 68 68 68 68 67 67 67 67 66 65 65 64 64 63 64 64
68 68 68 68 68 68 67 68 68 69 70 69 68 68 68 68 67 66 66 66 66 66 66 66 66 65 64 64 63 63 63 63
68 68 68 68 67 68 68 68 68 68 68 69 68 68 67 66 65 66 65 66 65 64 64 65 65 65 65 63 63 63 63 63
68 68 68 68 68 67 67 68 68 68 68 68 68 66 66 65 65 64 65 65 64 63 64 65 65 65 64 63 62 63 61 61
68 67 68 68 67 68 67 67 67 67 67 67 67 66 65 65 64 64 64 64 63 62 63 63 63 63 63 63 61 62 62 61
67 67 67 67 67 66 66 67 66 67 67 67 66 66 66 65 64 63 63 63 63 63 62 62 63 63 63 63 62 62 61 61
66 67 68 68 67 67 66 67 66 67 67 67 66 66 66 65 64 63 63 63 63 63 63 62 62 63 62 63 62 62 61 60
66 67 67 68 67 67 67 66 66 66 67 67 66 66 65 64 64 63 64 63 63 63 62 61 61 61 61 61 61 62 60 59
63 67 67 67 67 67 66 66 65 65 65 66 66 65 65 64 63 64 64 64 63 63 62 61 60 61 61 61 61 60 58 57
57 67 67 67 67 66 65 65 67 65 64 65 65 65 64 63 63 63 63 63 62 62 62 62 61 61 61 60 61 59 56 56
56 66 66 66 66 65 64 64 65 65 65 64 65 66 65 64 64 63 63 62 61 62 61 61 60 61 59 58 58 57 54 55
57 66 66 66 66 65 64 65 65 64 65 65 64 65 64 64 63 63 63 62 62 61 61 60 60 60 57 56 54 54 53 54
60 66 66 65 65 64 63 63 64 64 64 64 64 64 63 63 63 63 63 62 61 61 60 59 58 59 59 55 51 49 51 53
59 66 65 65 64 64 62 62 61 62 63 63 63 64 63 63 63 62 62 62 61 61 61 60 59 57 59 58 53 51 48 50
54 65 65 64 64 63 62 62 61 62 62 62 62 62 63 62 62 62 62 62 61 61 61 60 59 58 58 56 52 52 51 48
46 61 64 64 63 62 62 61 61 60 60 60 61 61 62 62 62 62 62 61 61 61 61 59 59 59 59 57 53 50 50 49
50 53 63 63 62 62 62 61 61 59 59 60 59 60 60 61 61 61 61 61 61 61 60 60 59 59 58 57 55 53 51 51
51 59 62 62 62 61 62 62 61 60 59 60 60 59 59 59 60 61 61 61 61 61 60 60 59 59 58 58 57 55 52 52

GFSFLT2_sfc_dewp_105.txt.gz
Dewpoint
69 70 70 70 69 69 69 70 70 70 71 71 71 71 70 71 71 71 71 71 70 70 69 69 69 68 67 66 66 66 64 65
68 69 70 70 69 69 69 69 69 70 70 70 69 70 70 70 70 70 70 69 69 69 69 68 68 67 66 66 65 66 64 64
67 68 68 68 69 69 69 70 69 69 70 69 68 70 69 69 69 69 68 68 69 68 68 67 67 66 66 65 65 65 64 64
66 67 67 67 68 69 69 69 69 68 69 69 70 68 68 68 68 67 67 67 67 67 67 66 66 65 64 65 65 64 64 64
66 66 67 67 67 68 68 68 67 67 67 67 69 68 68 68 66 66 66 67 65 65 65 64 63 64 64 64 64 64 64 64
66 66 66 67 67 67 68 68 66 66 66 66 68 68 67 66 66 65 65 64 63 63 62 62 63 63 64 63 63 63 63 64
65 66 66 66 66 66 66 66 66 65 65 67 68 68 67 66 65 65 64 63 63 62 62 61 62 62 62 63 63 63 63 64
66 66 65 66 66 66 65 65 65 65 66 66 68 68 66 66 64 64 64 63 62 62 61 61 61 62 62 62 62 63 63 63
66 66 66 66 66 66 66 66 65 65 65 67 67 67 65 64 64 64 64 63 62 61 60 61 61 61 61 62 62 63 63 63
64 67 67 66 66 66 66 66 66 66 66 66 67 67 65 64 63 64 64 63 61 61 60 60 61 61 61 62 62 62 62 63
55 66 67 67 66 66 66 66 66 66 66 66 67 66 65 64 63 64 63 63 62 61 61 61 60 61 61 61 62 62 62 63
37 62 66 67 67 66 66 65 66 66 66 66 65 66 64 64 63 63 63 62 62 62 61 61 60 60 61 60 61 61 62 62
38 56 66 66 66 66 65 64 65 65 66 66 65 65 64 64 63 63 63 62 62 62 61 61 60 60 59 59 60 61 61 61
38 54 63 66 66 66 65 65 65 65 65 65 65 65 64 64 64 63 63 62 62 62 61 60 60 60 58 57 55 55 59 60
37 51 60 65 66 66 63 62 63 64 64 65 65 65 64 64 64 63 63 63 62 62 61 60 59 61 60 57 53 52 55 58
42 45 59 64 65 65 63 63 62 63 64 64 65 65 64 64 63 63 63 63 62 62 62 61 60 58 60 59 57 55 53 52
54 45 56 62 65 64 64 62 62 62 63 63 64 64 64 64 63 63 63 63 62 62 61 61 61 59 59 58 57 57 56 53
54 58 59 63 65 64 63 62 62 62 62 63 63 63 64 64 63 63 63 62 62 62 62 61 61 60 60 58 57 54 53 53
48 57 63 64 65 64 64 63 62 61 62 62 62 62 62 62 63 62 62 62 62 62 61 61 60 60 59 58 57 56 54 53
44 48 52 64 64 64 64 62 62 61 61 62 61 61 62 62 62 62 62 62 62 62 61 61 61 60 59 59 58 57 55 53

GFSFLT2_sfc_dewp_108.txt.gz
Dewpoint
69 69 70 70 69 69 69 70 70 70 70 71 71 71 71 71 71 71 71 70 71 70 69 69 69 68 67 66 66 66 65 65
68 68 69 69 69 68 69 69 69 69 70 70 70 70 70 70 70 70 70 70 70 69 68 68 68 67 66 66 65 66 65 65
67 67 68 68 69 69 69 69 69 69 69 69 68 70 69 69 69 69 69 69 69 68 68 68 67 66 66 66 66 65 64 65
66 66 67 67 68 69 69 70 70 70 70 69 69 68 68 69 68 68 68 68 68 68 67 67 66 65 66 66 65 65 64 64
65 65 66 66 67 68 68 68 68 68 68 69 69 68 67 68 68 68 67 67 67 67 66 66 64 64 64 64 64 64 64 65
64 65 65 65 66 66 66 67 67 67 67 68 68 68 68 67 66 65 65 65 64 65 65 63 63 64 64 63 63 64 63 64
64 64 65 65 66 66 66 66 67 67 66 66 67 68 68 67 66 66 65 63 63 62 62 62 62 62 63 63 63 63 63 63
65 65 65 66 65 65 66 66 67 66 66 65 66 67 67 66 66 66 64 64 62 62 62 62 62 62 62 62 62 63 63 63
64 65 65 65 65 64 65 65 66 65 64 65 65 66 67 66 65 65 65 62 61 61 60 60 60 61 61 61 62 63 63 63
51 65 65 65 65 65 65 64 64 64 64 64 66 65 66 66 65 65 65 63 61 61 60 60 60 61 61 60 61 62 62 63
37 62 65 65 65 65 64 65 65 65 64 64 65 66 66 65 65 64 64 63 62 61 60 60 60 61 61 62 62 62 62 63
32 50 65 66 66 65 65 65 65 65 65 64 65 65 66 65 64 64 63 63 62 61 60 61 61 61 61 61 62 62 62 62
30 32 50 65 65 65 64 63 64 65 65 65 65 66 65 65 64 63 63 62 62 62 61 60 60 61 59 59 60 61 61 62
29 31 33 62 63 64 64 64 65 65 65 65 65 65 65 64 64 63 62 62 62 62 61 60 60 60 57 57 55 57 60 61
43 34 38 58 62 65 65 65 64 64 64 64 65 65 64 64 64 63 63 62 62 62 62 61 59 60 60 57 54 53 55 58
50 53 42 58 64 64 63 62 61 62 63 64 64 65 64 64 64 64 63 63 62 62 62 61 60 59 59 60 57 56 53 52
46 49 52 52 63 63 64 63 62 62 64 63 63 64 64 64 64 64 63 63 63 62 62 61 61 59 59 59 59 56 56 54
43 48 54 50 62 64 64 62 61 62 63 63 63 64 64 64 64 63 63 63 63 62 62 61 61 60 60 59 58 56 55 55
42 44 50 59 62 64 63 62 62 61 62 62 62 62 63 63 63 63 63 63 63 62 62 61 61 60 60 59 59 58 57 55
40 43 46 50 61 63 64 63 62 62 62 62 62 61 62 62 63 62 63 63 62 62 62 61 61 61 60 60 59 59 58 55

GFSFLT2_sfc_dewp_111.txt.gz
Dewpoint
71 70 70 70 70 70 69 69 70 70 71 71 72 71 71 71 71 71 71 70 70 70 70 69 69 69 68 67 66 67 67 66
70 70 70 71 72 68 69 69 69 70 70 70 70 70 70 70 70 70 71 70 70 70 69 69 68 68 67 66 66 66 67 66
68 68 69 70 71 70 69 69 69 69 70 69 68 71 71 71 70 69 70 69 69 69 68 68 67 67 66 66 66 65 67 66
66 67 68 69 69 70 71 70 70 70 70 70 71 71 71 70 69 68 68 68 68 68 67 67 66 66 66 66 66 67 67 67
66 66 67 68 68 68 68 69 69 69 70 70 70 70 71 71 70 70 70 68 69 68 68 68 67 66 67 67 67 67 66 66
66 67 66 67 67 67 67 67 68 68 68 69 69 68 69 70 69 70 69 70 69 69 69 68 68 67 66 66 67 66 66 67
65 66 66 66 66 66 66 66 66 67 68 68 68 67 67 68 68 68 68 68 68 68 68 68 67 66 66 66 66 66 66 66
66 66 66 66 65 66 66 66 66 67 68 69 68 68 67 67 67 68 68 68 68 67 67 66 66 66 66 66 65 65 65 66
58 67 67 66 66 67 66 66 66 66 67 69 69 69 68 67 67 66 67 68 67 67 66 66 66 66 65 65 65 65 65 64
41 57 66 67 67 67 67 67 67 67 67 67 69 69 68 68 66 66 67 66 66 66 65 65 65 65 64 65 64 64 64 64
39 46 61 66 67 67 67 67 67 67 66 66 67 68 67 67 66 66 66 66 65 65 65 64 64 64 63 63 64 64 63 63
38 41 50 64 66 67 67 67 66 66 66 65 65 66 65 66 66 66 66 64 64 64 64 64 64 63 62 63 64 63 64 64
34 37 45 55 62 64 64 63 64 65 65 65 65 65 65 66 66 65 65 64 63 63 63 63 62 63 61 61 62 63 62 63
51 49 39 42 57 62 63 63 64 65 65 65 65 65 65 65 65 64 64 64 63 63 62 62 62 62 60 59 57 59 62 62
48 49 52 51 44 58 64 65 66 64 64 65 64 65 65 65 64 64 64 64 63 63 63 62 60 61 62 59 56 55 57 60
45 47 48 51 53 51 62 61 60 61 63 64 65 65 65 64 64 64 64 63 63 63 63 63 62 60 61 61 61 58 56 54
42 44 47 50 54 54 62 62 62 62 64 65 64 64 64 64 64 64 63 64 64 63 63 63 63 61 60 60 60 60 58 55
40 42 44 50 55 55 62 63 62 62 63 64 64 64 64 64 64 64 64 63 64 63 63 63 62 62 61 61 59 58 56 56
39 41 42 46 51 54 62 63 64 63 63 63 63 63 63 63 64 64 63 63 63 64 63 63 62 62 61 61 60 59 58 56
38 41 41 45 49 54 61 62 62 63 64 63 63 63 63 64 64 64 64 64 63 63 63 63 63 62 62 61 60 60 59 58

GFSFLT2_sfc_dewp_114.txt.gz
Dewpoint
71 71 71 70 70 69 69 70 70 71 71 71 72 71 71 71 71 72 71 70 70 71 70 70 70 69 68 67 67 67 62 63
71 71 71 70 71 69 69 69 69 70 70 71 70 70 70 71 71 71 71 70 70 70 69 69 69 68 68 67 66 67 64 61
70 70 70 70 70 70 69 69 69 69 70 70 69 70 71 71 69 70 70 69 69 69 69 68 68 67 67 66 66 63 62 61
69 69 69 70 67 70 70 69 68 69 69 70 69 69 69 68 68 68 68 68 68 68 68 67 67 65 66 66 65 61 61 61
68 68 69 70 69 69 68 68 67 68 70 69 69 68 69 68 69 70 71 69 68 67 68 66 65 63 63 64 63 63 61 61
66 68 68 70 69 67 68 68 69 69 69 70 68 69 69 68 67 67 68 69 67 67 66 66 65 64 64 64 64 63 60 62
64 66 67 68 69 67 67 68 66 69 69 69 69 69 69 68 66 66 66 67 68 66 66 66 66 65 64 64 64 63 62 62
47 62 67 66 67 68 68 68 66 68 68 68 69 68 68 67 67 66 66 66 67 67 66 66 65 65 64 64 64 63 63 63
41 51 62 67 67 66 67 66 66 66 67 70 69 69 68 68 67 66 65 67 67 68 67 65 65 65 64 64 64 64 63 63
35 40 51 63 66 66 64 64 65 64 66 67 70 69 69 68 67 67 67 68 68 66 66 65 65 64 64 64 63 64 63 63
34 40 44 58 64 66 66 66 65 64 64 65 67 69 70 68 67 67 69 68 68 66 65 66 64 64 63 63 64 63 63 62
44 40 42 46 58 63 62 64 65 64 64 64 66 68 68 68 65 68 68 67 66 67 66 65 64 64 62 62 63 63 64 62
48 50 52 43 41 54 57 62 63 64 64 65 65 67 68 67 65 66 67 66 66 67 66 66 66 65 64 64 63 63 63 61
48 48 49 50 45 41 55 58 61 62 64 66 66 66 66 67 66 66 66 66 65 66 65 64 64 65 62 61 59 60 62 62
44 46 47 48 51 50 43 56 58 60 64 66 66 65 66 68 66 66 66 66 64 64 65 64 62 63 64 59 58 54 55 59
42 44 45 46 49 50 51 46 53 58 61 64 65 67 66 66 67 66 66 66 64 64 64 64 64 61 63 62 60 57 55 54
40 42 43 45 48 50 52 50 55 56 61 62 64 66 66 66 66 66 65 65 65 64 64 64 64 62 61 61 61 60 59 57
37 39 40 42 45 49 52 55 53 55 57 61 62 65 65 65 65 65 65 65 64 64 64 64 64 63 62 61 60 59 59 58
35 35 37 39 43 46 50 54 56 59 57 60 62 63 63 64 65 64 64 65 65 64 64 64 64 63 63 62 61 59 58 57
35 34 35 37 41 44 48 53 56 58 59 58 61 63 63 64 64 64 64 64 64 64 64 64 64 64 64 64 61 61 60 58

GFSFLT2_sfc_dewp_117.txt.gz
Dewpoint
72 71 70 70 70 70 70 71 71 71 72 72 72 72 71 71 72 72 72 72 72 71 70 70 70 70 69 68 67 67 66 61
71 71 70 70 69 69 69 70 70 71 71 71 71 71 71 71 71 71 71 70 70 70 70 69 69 69 68 67 67 67 66 62
72 71 70 69 68 69 69 70 70 70 71 70 70 70 71 71 69 70 70 69 70 70 69 69 68 68 68 67 67 63 61 61
71 71 71 70 66 70 68 68 67 68 69 71 70 69 69 66 68 69 69 68 69 69 68 68 68 66 67 67 66 62 61 62
69 70 71 71 69 67 67 66 67 67 68 69 69 68 69 67 68 68 70 69 70 68 68 67 66 63 62 64 63 63 63 62
66 69 70 70 70 66 66 64 67 66 67 71 69 68 69 68 66 67 69 68 68 68 66 66 66 65 66 64 63 65 63 64
59 67 69 70 70 68 69 68 65 66 66 70 68 66 69 68 66 66 67 66 67 67 66 66 65 64 64 65 64 64 64 61
41 50 67 68 69 70 70 69 67 68 67 68 71 68 69 66 66 63 65 64 65 66 66 66 66 65 65 64 64 63 64 64
37 44 50 64 67 67 69 67 67 65 66 70 70 70 70 69 68 65 62 63 68 68 68 67 67 66 65 64 64 64 65 65
33 34 43 51 60 64 66 66 67 65 66 66 70 69 69 69 68 67 65 65 66 68 67 66 66 65 65 65 65 64 64 64
40 45 45 47 52 60 64 67 66 65 64 66 68 69 70 68 67 68 69 65 67 66 67 67 66 65 65 65 65 63 64 61
46 47 50 51 47 53 57 61 64 66 65 64 67 68 69 69 66 68 68 67 67 67 67 67 65 64 62 62 66 65 63 62
45 47 49 50 49 42 47 59 61 64 66 66 65 66 69 69 67 68 68 67 67 68 67 66 65 66 64 64 64 65 64 62
45 45 46 47 47 48 45 47 55 61 64 65 67 67 68 68 68 66 69 67 66 67 66 66 66 67 63 62 59 61 62 62
41 43 44 46 48 47 48 51 49 58 62 63 65 67 68 69 68 67 67 68 66 66 66 65 64 67 66 60 57 53 55 60
41 41 42 43 46 47 49 47 46 50 60 62 63 66 67 68 69 68 68 67 66 65 65 65 64 62 65 63 62 56 52 53
38 40 40 42 44 46 47 49 50 51 52 62 63 65 66 67 68 68 68 67 67 66 65 65 64 62 62 63 63 61 61 56
36 37 38 40 42 44 45 48 50 51 53 56 61 63 65 68 67 68 67 66 66 66 66 64 64 63 63 62 61 60 58 58
32 34 35 37 39 41 42 44 48 51 52 55 60 62 63 66 66 66 66 66 66 66 65 64 64 63 62 62 62 61 60 59
31 31 33 35 36 38 40 42 45 49 52 55 56 61 63 66 66 65 65 66 65 65 64 64 64 64 63 63 62 63 63 59